When you browse on this site, cookies collect data to enhance your experience and personalize the content and advertising you see.
Visit our Privacy Policy to learn more. By continuing to use the site, you agree to this use of cookies and data.
  • In Schweiz
  • Länderverzeichnis
  • Für 7 Tage
  • Wassertemperatur
  • Wetterkarte
  • Widgets
  • user-avatar
    Anmelden

    Stündliche Wetter Tukson

    Heute, 10 Dezember, Dienstag

    Zeit Temperatur Niederschläge Wind Luftdruck Luftfeuchtigkeit
    00:00 +12°C° 0 mm 1 m/S 696 mmHg 77%
    01:00 +11°C° 0 mm 1 m/S 696 mmHg 77%
    02:00 +11°C° 0 mm 1 m/S 697 mmHg 77%
    03:00 +11°C° 0 mm 1 m/S 697 mmHg 78%
    04:00 +11°C° 0 mm 1 m/S 697 mmHg 78%
    05:00 +9°C° 0 mm 0 m/S 698 mmHg 79%
    06:00 +11°C° 0 mm 1 m/S 698 mmHg 78%
    07:00 +11°C° 0 mm 1 m/S 699 mmHg 77%
    08:00 +11°C° 0 mm 1 m/S 699 mmHg 77%
    09:00 +13°C° 0 mm 1 m/S 700 mmHg 68%
    10:00 +14°C° 0 mm 2 m/S 700 mmHg 59%
    11:00 +15°C° 0 mm 2 m/S 701 mmHg 51%
    12:00 +16°C° 0 mm 2 m/S 700 mmHg 48%
    13:00 +17°C° 0 mm 2 m/S 700 mmHg 44%
    14:00 +19°C° 0 mm 1 m/S 699 mmHg 41%
    15:00 +18°C° 0 mm 2 m/S 699 mmHg 44%
    16:00 +17°C° 0 mm 2 m/S 700 mmHg 47%
    17:00 +17°C° 0 mm 2 m/S 700 mmHg 51%
    18:00 +16°C° 0 mm 2 m/S 700 mmHg 53%
    19:00 +15°C° 0 mm 2 m/S 700 mmHg 55%
    20:00 +14°C° 0 mm 2 m/S 699 mmHg 57%
    21:00 +14°C° 0 mm 2 m/S 700 mmHg 58%
    22:00 +14°C° 0 mm 1 m/S 700 mmHg 59%
    23:00 +13°C° 0 mm 1 m/S 700 mmHg 59%

    Morgen, 11 Dezember, Mittwoch

    Zeit Temperatur Niederschläge Wind Luftdruck Luftfeuchtigkeit
    00:00 +13°C° 0 mm 2 m/S 699 mmHg 60%
    01:00 +13°C° 0 mm 2 m/S 699 mmHg 61%
    02:00 +13°C° 0 mm 2 m/S 699 mmHg 61%
    03:00 +13°C° 0 mm 2 m/S 699 mmHg 61%
    04:00 +13°C° 0 mm 2 m/S 698 mmHg 62%
    05:00 +12°C° 0 mm 2 m/S 698 mmHg 62%
    06:00 +12°C° 0 mm 3 m/S 698 mmHg 61%
    07:00 +12°C° 0 mm 3 m/S 699 mmHg 60%
    08:00 +12°C° 0 mm 4 m/S 699 mmHg 60%
    09:00 +13°C° 0 mm 3 m/S 699 mmHg 54%
    10:00 +16°C° 0 mm 2 m/S 699 mmHg 47%
    11:00 +17°C° 0 mm 2 m/S 700 mmHg 41%
    12:00 +19°C° 0 mm 1 m/S 699 mmHg 38%
    13:00 +20°C° 0 mm 1 m/S 698 mmHg 35%
    14:00 +19°C° 0 mm 0 m/S 698 mmHg 32%
    15:00 +20°C° 0 mm 1 m/S 698 mmHg 35%
    16:00 +19°C° 0 mm 1 m/S 698 mmHg 39%
    17:00 +19°C° 0 mm 1 m/S 697 mmHg 42%
    18:00 +18°C° 0 mm 1 m/S 698 mmHg 46%
    19:00 +16°C° 0 mm 1 m/S 698 mmHg 50%
    20:00 +14°C° 0 mm 1 m/S 698 mmHg 54%
    21:00 +14°C° 0 mm 1 m/S 698 mmHg 55%
    22:00 +13°C° 0 mm 0 m/S 698 mmHg 56%
    23:00 +12°C° 0 mm 0 m/S 698 mmHg 57%

    übermorgen, 12 Dezember, Donnerstag

    Zeit Temperatur Niederschläge Wind Luftdruck Luftfeuchtigkeit
    00:00 +12°C° 0 mm 0 m/S 698 mmHg 59%
    01:00 +11°C° 0 mm 0 m/S 698 mmHg 60%
    02:00 +11°C° 0 mm 0 m/S 698 mmHg 61%
    03:00 +11°C° 0 mm 0 m/S 698 mmHg 62%
    04:00 +10°C° 0 mm 0 m/S 698 mmHg 62%
    05:00 +10°C° 0 mm 0 m/S 698 mmHg 62%
    06:00 +10°C° 0 mm 0 m/S 698 mmHg 61%
    07:00 +11°C° 0 mm 0 m/S 699 mmHg 61%
    08:00 +11°C° 0 mm 0 m/S 699 mmHg 60%
    09:00 +13°C° 0 mm 0 m/S 700 mmHg 53%
    10:00 +15°C° 0 mm 0 m/S 700 mmHg 45%
    11:00 +17°C° 0 mm 0 m/S 701 mmHg 37%
    12:00 +17°C° 0 mm 0 m/S 700 mmHg 35%
    13:00 +20°C° 0 mm 1 m/S 700 mmHg 32%
    14:00 +21°C° 0 mm 1 m/S 699 mmHg 29%
    15:00 +20°C° 0 mm 1 m/S 699 mmHg 33%
    16:00 +19°C° 0 mm 1 m/S 699 mmHg 37%
    17:00 +18°C° 0 mm 2 m/S 699 mmHg 41%
    18:00 +18°C° 0 mm 1 m/S 699 mmHg 45%
    19:00 +16°C° 0 mm 1 m/S 699 mmHg 49%
    20:00 +15°C° 0 mm 1 m/S 699 mmHg 53%
    21:00 +14°C° 0 mm 1 m/S 699 mmHg 54%
    22:00 +13°C° 0 mm 0 m/S 699 mmHg 56%
    23:00 +12°C° 0 mm 0 m/S 699 mmHg 58%

    13 Dezember, Freitag

    Zeit Temperatur Niederschläge Wind Luftdruck Luftfeuchtigkeit
    00:00 +12°C° 0 mm 0 m/S 699 mmHg 58%
    01:00 +12°C° 0 mm 0 m/S 698 mmHg 59%
    02:00 +11°C° 0 mm 0 m/S 698 mmHg 59%
    03:00 +11°C° 0 mm 0 m/S 698 mmHg 59%
    04:00 +11°C° 0 mm 0 m/S 697 mmHg 59%
    05:00 +11°C° 0 mm 0 m/S 697 mmHg 59%
    06:00 +11°C° 0 mm 0 m/S 698 mmHg 58%
    07:00 +11°C° 0 mm 0 m/S 698 mmHg 57%
    08:00 +12°C° 0 mm 0 m/S 698 mmHg 57%
    09:00 +14°C° 0 mm 0 m/S 698 mmHg 49%
    10:00 +18°C° 0 mm 1 m/S 698 mmHg 41%
    11:00 +19°C° 0 mm 1 m/S 699 mmHg 33%
    12:00 +20°C° 0 mm 1 m/S 698 mmHg 32%
    13:00 +21°C° 0 mm 1 m/S 697 mmHg 30%
    14:00 +22°C° 0 mm 1 m/S 697 mmHg 28%
    15:00 +21°C° 0 mm 1 m/S 697 mmHg 32%
    16:00 +20°C° 0 mm 1 m/S 696 mmHg 36%
    17:00 +20°C° 0 mm 1 m/S 696 mmHg 40%
    18:00 +19°C° 0 mm 1 m/S 696 mmHg 43%
    19:00 +16°C° 0 mm 0 m/S 696 mmHg 45%
    20:00 +15°C° 0 mm 0 m/S 696 mmHg 47%
    21:00 +14°C° 0 mm 0 m/S 696 mmHg 47%
    22:00 +14°C° 0 mm 0 m/S 695 mmHg 47%
    23:00 +14°C° 0 mm 0 m/S 695 mmHg 48%

    14 Dezember, Samstag

    Zeit Temperatur Niederschläge Wind Luftdruck Luftfeuchtigkeit
    00:00 +13°C° 0 mm 0 m/S 695 mmHg 47%
    01:00 +13°C° 0 mm 0 m/S 694 mmHg 47%
    02:00 +13°C° 0 mm 0 m/S 694 mmHg 47%
    03:00 +12°C° 0 mm 0 m/S 694 mmHg 47%
    04:00 +12°C° 0 mm 0 m/S 693 mmHg 47%
    05:00 +12°C° 0 mm 0 m/S 693 mmHg 47%
    06:00 +13°C° 0 mm 1 m/S 693 mmHg 46%
    07:00 +14°C° 0 mm 1 m/S 693 mmHg 45%
    08:00 +14°C° 0 mm 2 m/S 693 mmHg 45%
    09:00 +16°C° 0 mm 2 m/S 693 mmHg 39%
    10:00 +18°C° 0 mm 2 m/S 694 mmHg 34%
    11:00 +20°C° 0 mm 2 m/S 694 mmHg 28%
    12:00 +21°C° 0 mm 2 m/S 693 mmHg 28%
    13:00 +21°C° 0 mm 3 m/S 693 mmHg 28%
    14:00 +22°C° 0 mm 4 m/S 692 mmHg 28%
    15:00 +21°C° 0 mm 3 m/S 692 mmHg 31%
    16:00 +20°C° 0 mm 3 m/S 692 mmHg 34%
    17:00 +20°C° 0 mm 3 m/S 691 mmHg 38%
    18:00 +19°C° 0 mm 3 m/S 691 mmHg 40%
    19:00 +18°C° 0 mm 2 m/S 691 mmHg 42%
    20:00 +17°C° 0 mm 2 m/S 691 mmHg 44%
    21:00 +16°C° 0 mm 2 m/S 691 mmHg 45%
    22:00 +16°C° 0 mm 2 m/S 691 mmHg 46%
    23:00 +15°C° 0 mm 2 m/S 691 mmHg 47%

    15 Dezember, Sonntag

    Zeit Temperatur Niederschläge Wind Luftdruck Luftfeuchtigkeit
    00:00 +15°C° 0 mm 2 m/S 691 mmHg 48%
    01:00 +14°C° 0 mm 2 m/S 690 mmHg 49%
    02:00 +14°C° 0 mm 2 m/S 690 mmHg 50%
    03:00 +14°C° 0 mm 1 m/S 690 mmHg 50%
    04:00 +13°C° 0 mm 1 m/S 690 mmHg 51%
    05:00 +13°C° 0 mm 1 m/S 690 mmHg 52%
    06:00 +13°C° 0 mm 1 m/S 691 mmHg 52%
    07:00 +13°C° 0 mm 1 m/S 691 mmHg 51%
    08:00 +13°C° 0 mm 1 m/S 692 mmHg 51%
    09:00 +15°C° 0 mm 2 m/S 692 mmHg 46%
    10:00 +16°C° 0 mm 2 m/S 692 mmHg 41%
    11:00 +18°C° 0 mm 3 m/S 693 mmHg 36%
    12:00 +18°C° 0 mm 4 m/S 692 mmHg 35%
    13:00 +19°C° 0 mm 5 m/S 692 mmHg 35%
    14:00 +19°C° 0 mm 6 m/S 692 mmHg 34%
    15:00 +17°C° 0 mm 6 m/S 692 mmHg 37%
    16:00 +17°C° 0 mm 6 m/S 692 mmHg 39%
    17:00 +16°C° 0 mm 5 m/S 692 mmHg 42%
    18:00 +15°C° 0 mm 5 m/S 692 mmHg 46%
    19:00 +14°C° 0 mm 4 m/S 693 mmHg 50%
    20:00 +13°C° 0 mm 4 m/S 693 mmHg 54%
    21:00 +12°C° 0 mm 3 m/S 693 mmHg 55%
    22:00 +11°C° 0 mm 3 m/S 694 mmHg 57%
    23:00 +11°C° 0 mm 3 m/S 694 mmHg 59%
    Mehr zeigen